Hinckley, MN

2:51 PM CST on December 05, 2019 (GMT -0600)
Hinckley

Weather History for K04W - October, 2019

Change the Weather History Date:

Tuesday, October 29, 2019

  Actual Average (WUND) Record (WUND)
Temperature  
Mean Temperature 28 °F -  
Max Temperature 35 °F - - (-1)
Min Temperature 21 °F - - (-1)
Degree Days  
Heating Degree Days 37    
Moisture  
Dew Point 19 °F    
Average Humidity 70    
Maximum Humidity 100    
Minimum Humidity 38    
Precipitation  
Precipitation 0.00 in - - ()
Sea Level Pressure  
Sea Level Pressure 30.19 in    
Wind  
Wind Speed 4 mph (WSW)    
Max Wind Speed 14 mph    
Max Gust Speed 20 mph    
Visibility 10 miles    
Events      
Averages and records for this station are not official NWS values.
T = Trace of Precipitation, MM = Missing Value Source: NWS Daily Summary

Daily Weather History Graph

Daily Weather History Graph

Search for Another Location

Airport or City:

Astronomy

Oct. 29, 2019 Rise Set
Actual Time 7:47 AM CDT 6:02 PM CDT
Civil Twilight 7:16 AM CDT 6:33 PM CDT
Nautical Twilight 6:41 AM CDT 7:08 PM CDT
Astronomical Twilight 6:06 AM CDT 7:43 PM CDT
Moon 9:25 AM CDT (10/29) 7:22 PM CDT (10/29)
Length of Visible Light 11h 16m
Length of Day
10h 14m
Waxing Crescent, 3% of the Moon is Illuminated
Oct 29
Waxing Crescent
Nov 4
First Quarter
Nov 12
Full
Nov 19
Last Quarter
Nov 26
New

Hourly Weather History & Observations

Time (CDT) Temp. Windchill Dew Point Humidity Pressure Visibility Wind Dir Wind Speed Gust Speed Precip Events Conditions
12:15 AM 30.2 °F 26.7 °F 21.2 °F 69% 30.09 in 10.0 mi SSW 3.5 mph - N/A   Clear
12:38 AM 30.2 °F 26.7 °F 21.2 °F 69% 30.10 in 10.0 mi SSW 3.5 mph - N/A   Clear
12:55 AM 30.2 °F 26.7 °F 21.2 °F 69% 30.10 in 10.0 mi SSW 3.5 mph - N/A   Clear
1:15 AM 28.4 °F 23.3 °F 21.2 °F 74% 30.11 in 10.0 mi SSW 4.6 mph - N/A   Clear
1:16 AM 28.4 °F 23.3 °F 21.2 °F 74% 30.11 in 10.0 mi SSW 4.6 mph - N/A   Clear
1:35 AM 28.4 °F 23.3 °F 21.2 °F 74% 30.11 in 10.0 mi SSW 4.6 mph - N/A   Clear
1:36 AM 28.4 °F 24.6 °F 21.2 °F 74% 30.11 in 10.0 mi SSW 3.5 mph - N/A   Clear
1:58 AM 28.4 °F 23.3 °F 21.2 °F 74% 30.11 in 10.0 mi SSW 4.6 mph - N/A   Clear
2:16 AM 28.4 °F 24.6 °F 21.2 °F 74% 30.11 in 10.0 mi SSW 3.5 mph - N/A   Clear
2:36 AM 28.4 °F - 21.2 °F 74% 30.11 in 10.0 mi Calm Calm - N/A   Clear
2:55 AM 28.4 °F 24.6 °F 21.2 °F 74% 30.11 in 10.0 mi SSW 3.5 mph - N/A   Clear
2:56 AM 28.4 °F 24.6 °F 21.2 °F 74% 30.11 in 10.0 mi SSW 3.5 mph - N/A   Clear
3:15 AM 28.4 °F 24.6 °F 21.2 °F 74% 30.10 in 10.0 mi SSW 3.5 mph - N/A   Clear
3:19 AM 28.4 °F - 21.2 °F 74% 30.10 in 10.0 mi Calm Calm - N/A   Clear
3:38 AM 26.6 °F - 21.2 °F 80% 30.10 in 10.0 mi Calm Calm - N/A   Clear
3:55 AM 26.6 °F - 21.2 °F 80% 30.09 in 10.0 mi Calm Calm - N/A   Clear
4:15 AM 24.8 °F - 23.0 °F 93% 30.10 in 10.0 mi Calm Calm - N/A   Clear
4:16 AM 24.8 °F - 23.0 °F 93% 30.10 in 10.0 mi Calm Calm - N/A   Clear
4:35 AM 24.8 °F - 23.0 °F 93% 30.10 in 10.0 mi Calm Calm - N/A   Clear
4:36 AM 24.8 °F - 23.0 °F 93% 30.10 in 10.0 mi Calm Calm - N/A   Clear
4:58 AM 23.0 °F - 21.2 °F 93% 30.11 in 10.0 mi Calm Calm - N/A   Clear
5:16 AM 23.0 °F - 21.2 °F 93% 30.11 in 10.0 mi Calm Calm - N/A   Clear
5:36 AM 23.0 °F - 21.2 °F 93% 30.11 in 10.0 mi Calm Calm - N/A   Clear
5:55 AM 23.0 °F 18.4 °F 23.0 °F 100% 30.12 in 10.0 mi WSW 3.5 mph - N/A   Clear
5:56 AM 23.0 °F 18.4 °F 23.0 °F 100% 30.13 in 10.0 mi WSW 3.5 mph - N/A   Clear
6:15 AM 23.0 °F - 23.0 °F 100% 30.13 in 10.0 mi Calm Calm - N/A   Clear
6:20 AM 23.0 °F - 23.0 °F 100% 30.13 in 10.0 mi Calm Calm - N/A   Clear
6:37 AM 23.0 °F - 21.2 °F 93% 30.13 in 10.0 mi Calm Calm - N/A   Clear
6:56 AM 23.0 °F - 21.2 °F 93% 30.13 in 10.0 mi Calm Calm - N/A   Clear
7:15 AM 23.0 °F - 21.2 °F 93% 30.14 in 10.0 mi Calm Calm - N/A   Clear
7:16 AM 23.0 °F - 21.2 °F 93% 30.14 in 10.0 mi Calm Calm - N/A   Clear
7:35 AM 23.0 °F - 21.2 °F 93% 30.13 in 10.0 mi Calm Calm - N/A   Clear
7:36 AM 21.2 °F - 21.2 °F 100% 30.13 in 10.0 mi Calm Calm - N/A   Clear
7:58 AM 21.2 °F - 21.2 °F 100% 30.13 in 10.0 mi Calm Calm - N/A   Clear
8:16 AM 21.2 °F - 21.2 °F 100% 30.13 in 10.0 mi Calm Calm - N/A   Clear
8:36 AM 23.0 °F - 21.2 °F 93% 30.15 in 10.0 mi Calm Calm - N/A   Clear
8:55 AM 26.6 °F - 23.0 °F 86% 30.15 in 10.0 mi Calm Calm - N/A   Clear
8:56 AM 26.6 °F - 23.0 °F 86% 30.15 in 10.0 mi Calm Calm - N/A   Clear
9:15 AM 28.4 °F 24.6 °F 23.0 °F 80% 30.16 in 10.0 mi SW 3.5 mph - N/A   Clear
9:37 AM 28.4 °F 24.6 °F 24.8 °F 86% 30.16 in 10.0 mi West 3.5 mph - N/A   Clear
9:55 AM 30.2 °F 24.3 °F 26.6 °F 86% 30.17 in 10.0 mi West 5.8 mph - N/A   Clear
10:15 AM 32.0 °F 24.8 °F 26.6 °F 80% 30.18 in 10.0 mi West 8.1 mph - N/A   Clear
10:16 AM 32.0 °F 24.2 °F 24.8 °F 75% 30.18 in 10.0 mi West 9.2 mph - N/A   Clear
10:35 AM 32.0 °F 23.6 °F 24.8 °F 75% 30.19 in 10.0 mi West 10.4 mph - N/A   Clear
10:58 AM 33.8 °F 25.3 °F 24.8 °F 70% 30.20 in 10.0 mi West 11.5 mph - N/A   Clear
11:17 AM 32.0 °F 25.6 °F 19.4 °F 60% 30.21 in 10.0 mi WNW 6.9 mph - N/A   Clear
11:36 AM 32.0 °F 24.8 °F 19.4 °F 60% 30.21 in 10.0 mi WNW 8.1 mph - N/A   Clear
11:55 AM 32.0 °F 24.8 °F 19.4 °F 60% 30.22 in 10.0 mi WNW 8.1 mph - N/A   Clear
12:15 PM 32.0 °F 24.2 °F 17.6 °F 55% 30.22 in 10.0 mi West 9.2 mph - N/A   Scattered Clouds
12:19 PM 32.0 °F 25.6 °F 17.6 °F 55% 30.22 in 10.0 mi West 6.9 mph - N/A   Scattered Clouds
12:37 PM 32.0 °F 24.2 °F 19.4 °F 60% 30.23 in 10.0 mi West 9.2 mph - N/A   Scattered Clouds
12:56 PM 32.0 °F 24.8 °F 17.6 °F 55% 30.22 in 10.0 mi West 8.1 mph - N/A   Scattered Clouds
1:15 PM 32.0 °F 24.8 °F 17.6 °F 55% 30.22 in 10.0 mi WSW 8.1 mph - N/A   Mostly Cloudy
1:16 PM 32.0 °F 24.2 °F 17.6 °F 55% 30.22 in 10.0 mi West 9.2 mph - N/A   Mostly Cloudy
1:35 PM 33.8 °F 24.3 °F 15.8 °F 48% 30.23 in 10.0 mi WSW 13.8 mph - N/A   Mostly Cloudy
1:36 PM 33.8 °F 24.8 °F 15.8 °F 48% 30.23 in 10.0 mi West 12.7 mph - N/A   Mostly Cloudy
2:36 PM 33.8 °F 25.3 °F 15.8 °F 48% 30.22 in 10.0 mi WSW 11.5 mph - N/A   Clear
2:55 PM 35.6 °F 27.1 °F 15.8 °F 44% 30.22 in 10.0 mi West 12.7 mph - N/A   Clear
2:56 PM 35.6 °F 28.0 °F 15.8 °F 44% 30.22 in 10.0 mi WSW 10.4 mph - N/A   Clear
3:18 PM 35.6 °F 28.6 °F 14.0 °F 41% 30.22 in 10.0 mi West 9.2 mph 16.1 mph N/A   Clear
3:36 PM 35.6 °F 27.1 °F 14.0 °F 41% 30.22 in 10.0 mi WSW 12.7 mph - N/A   Clear
3:55 PM 35.6 °F 26.6 °F 14.0 °F 41% 30.22 in 10.0 mi WSW 13.8 mph 19.6 mph N/A   Clear
4:15 PM 35.6 °F 29.2 °F 12.2 °F 38% 30.21 in 10.0 mi West 8.1 mph - N/A   Clear
4:16 PM 35.6 °F 29.2 °F 14.0 °F 41% 30.21 in 10.0 mi West 8.1 mph - N/A   Clear
4:58 PM 33.8 °F 26.4 °F 14.0 °F 44% 30.21 in 10.0 mi WSW 9.2 mph - N/A   Clear
5:16 PM 33.8 °F 25.3 °F 14.0 °F 44% 30.22 in 10.0 mi SW 11.5 mph - N/A   Clear
5:35 PM 33.8 °F 27.0 °F 14.0 °F 44% 30.22 in 10.0 mi SW 8.1 mph - N/A   Clear
5:36 PM 33.8 °F 26.4 °F 14.0 °F 44% 30.22 in 10.0 mi SW 9.2 mph - N/A   Clear
5:55 PM 32.0 °F 24.2 °F 14.0 °F 48% 30.22 in 10.0 mi SW 9.2 mph - N/A   Clear
5:56 PM 32.0 °F 24.2 °F 14.0 °F 48% 30.22 in 10.0 mi SW 9.2 mph - N/A   Clear
6:18 PM 32.0 °F 25.6 °F 14.0 °F 48% 30.23 in 10.0 mi SW 6.9 mph - N/A   Clear
6:37 PM 30.2 °F 23.4 °F 14.0 °F 51% 30.23 in 10.0 mi WSW 6.9 mph - N/A   Clear
6:56 PM 30.2 °F 23.4 °F 14.0 °F 51% 30.24 in 10.0 mi WSW 6.9 mph - N/A   Clear
7:15 PM 28.4 °F 22.2 °F 14.0 °F 55% 30.25 in 10.0 mi SW 5.8 mph - N/A   Clear
7:16 PM 30.2 °F 24.3 °F 14.0 °F 51% 30.25 in 10.0 mi SW 5.8 mph - N/A   Clear
7:35 PM 28.4 °F 22.2 °F 15.8 °F 59% 30.26 in 10.0 mi SW 5.8 mph - N/A   Clear
7:39 PM 28.4 °F 22.2 °F 15.8 °F 59% 30.26 in 10.0 mi SW 5.8 mph - N/A   Clear
7:58 PM 28.4 °F 21.2 °F 15.8 °F 59% 30.26 in 10.0 mi WSW 6.9 mph - N/A   Clear
8:15 PM 28.4 °F 21.2 °F 15.8 °F 59% 30.27 in 10.0 mi WSW 6.9 mph - N/A   Clear
8:35 PM 28.4 °F 22.2 °F 15.8 °F 59% 30.27 in 10.0 mi WSW 5.8 mph - N/A   Clear
8:36 PM 28.4 °F 22.2 °F 15.8 °F 59% 30.27 in 10.0 mi WSW 5.8 mph - N/A   Clear
8:55 PM 28.4 °F 21.2 °F 17.6 °F 64% 30.27 in 10.0 mi WSW 6.9 mph - N/A   Clear
8:56 PM 28.4 °F 22.2 °F 17.6 °F 64% 30.27 in 10.0 mi WSW 5.8 mph - N/A   Clear
9:18 PM 26.6 °F 19.1 °F 15.8 °F 64% 30.28 in 10.0 mi WSW 6.9 mph - N/A   Clear
9:36 PM 26.6 °F 19.1 °F 17.6 °F 69% 30.28 in 10.0 mi WSW 6.9 mph - N/A   Clear
9:55 PM 26.6 °F 20.0 °F 17.6 °F 69% 30.29 in 10.0 mi WSW 5.8 mph - N/A   Clear
10:15 PM 26.6 °F 19.1 °F 17.6 °F 69% 30.30 in 10.0 mi WSW 6.9 mph - N/A   Clear
10:16 PM 26.6 °F 19.1 °F 17.6 °F 69% 30.30 in 10.0 mi WSW 6.9 mph - N/A   Clear
10:35 PM 26.6 °F 20.0 °F 17.6 °F 69% 30.31 in 10.0 mi SW 5.8 mph - N/A   Clear
10:57 PM 26.6 °F 19.1 °F 17.6 °F 69% 30.31 in 10.0 mi SW 6.9 mph - N/A   Clear
11:16 PM 26.6 °F 19.1 °F 17.6 °F 69% 30.31 in 10.0 mi SW 6.9 mph - N/A   Clear
11:35 PM 24.8 °F 16.9 °F 17.6 °F 74% 30.30 in 10.0 mi WSW 6.9 mph - N/A   Clear
11:36 PM 24.8 °F 16.9 °F 17.6 °F 74% 30.30 in 10.0 mi WSW 6.9 mph - N/A   Clear
11:55 PM 24.8 °F 17.9 °F 17.6 °F 74% 30.30 in 10.0 mi SW 5.8 mph - N/A   Clear
11:56 PM 24.8 °F 17.9 °F 17.6 °F 74% 30.30 in 10.0 mi SW 5.8 mph - N/A   Clear